This is the latest recevied weather packets stored in our database for station/object KC3BHK-2. If no packets are shown the sender has not sent any weather packets the latest 10 day(s).
| Time | Temp. | Humidity | Pressure | Rain* | Wind** | Luminosity | Snow |
|---|---|---|---|---|---|---|---|
| 1777643972 | 14.44° C | - | - | 0 mm | 1.34 m/s, 118° | - | - |
| 1777643362 | 14.44° C | - | - | 0 mm | 1.34 m/s, 149° | - | - |
| 1777643054 | 13.33° C | - | - | 0 mm | 0 m/s | - | - |
| 1777642750 | 13.33° C | - | - | 0 mm | 3.13 m/s, 127° | - | - |
| 1777642445 | 12.22° C | - | - | 0 mm | 2.24 m/s, 84° | - | - |
| 1777642140 | 12.78° C | - | - | 0 mm | 1.79 m/s, 163° | - | - |
| 1777641531 | 11.67° C | - | - | 0 mm | 0.45 m/s, 108° | - | - |
| 1777641223 | 11.67° C | - | - | 0 mm | 0 m/s | - | - |
| 1777640918 | 11.67° C | - | - | 0 mm | 0 m/s | - | - |
| 1777640613 | 11.11° C | - | - | 0 mm | 1.79 m/s, 128° | - | - |
| 1777640309 | 10.56° C | - | - | 0 mm | 2.24 m/s, 124° | - | - |
| 1777640004 | 10.56° C | - | - | 0 mm | 0.89 m/s, 270° | - | - |
| 1777639699 | 10.56° C | - | - | 0 mm | 1.34 m/s, 232° | - | - |
| 1777639391 | 10° C | - | - | 0 mm | 0.89 m/s, 352° | - | - |
| 1777639086 | 9.44° C | - | - | 0 mm | 0.45 m/s, 6° | - | - |
| 1777638781 | 8.89° C | - | - | 0 mm | 0.45 m/s, 256° | - | - |
| 1777638476 | 8.89° C | - | - | 0 mm | 2.24 m/s, 293° | - | - |
| 1777638172 | 8.89° C | - | - | 0 mm | 0.89 m/s, 329° | - | - |
| 1777637867 | 8.89° C | - | - | 0 mm | 0.89 m/s, 302° | - | - |
| 1777637559 | 8.89° C | - | - | 0 mm | 0.89 m/s, 267° | - | - |
| 1777637254 | 8.89° C | - | - | 0 mm | 0.45 m/s, 208° | - | - |
| 1777636949 | 8.33° C | - | - | 0 mm | 0 m/s | - | - |
| 1777636644 | 8.33° C | - | - | 0 mm | 0.45 m/s, 18° | - | - |
| 1777636339 | 7.78° C | - | - | 0 mm | 0.45 m/s, 293° | - | - |
| 1777636034 | 8.33° C | - | - | 0 mm | 1.34 m/s, 295° | - | - |
* Rain latest hour (hover to see other rain measurements)
** Current wind speed in m/s (hover to see current wind gust speed)